| time (UTC) | temp F | wind direction | speed MPH | gust MPH | rain 1hr in | rain 24hr in | rain mn in | humidity % | barometer mb |
| 20260507013525 | 67 | 327 | 0.0 | 0.0 | 0.00 | 0.00 | 0.00 | 83 | 1035.1 |
| 20260507011526 | 68 | 328 | 0.0 | 0.0 | 0.00 | 0.00 | 0.00 | 85 | 1035.1 |
| 20260507005624 | 68 | 325 | 0.0 | 0.0 | 0.00 | 0.00 | 0.00 | 86 | 1035.0 |
| 20260507004626 | 68 | 319 | 0.0 | 0.0 | 0.00 | 0.00 | 0.00 | 86 | 1034.9 |
| 20260507003624 | 69 | 322 | 0.0 | 0.0 | 0.00 | 0.00 | 0.00 | 84 | 1034.9 |
| 20260507002625 | 68 | 333 | 0.0 | 0.0 | 0.00 | 0.00 | 0.00 | 85 | 1034.8 |
| 20260507001625 | 69 | 325 | 0.0 | 0.0 | 0.00 | 0.00 | 0.00 | 86 | 1034.9 |
| 20260507000624 | 69 | 330 | 0.0 | 0.0 | 0.00 | 0.00 | 0.00 | 85 | 1034.8 |
| 20260506235625 | 70 | 328 | 0.0 | 0.0 | 0.00 | 0.00 | 0.00 | 84 | 1034.6 |
| 20260506234624 | 70 | 321 | 0.0 | 0.0 | 0.00 | 0.00 | 0.00 | 84 | 1034.6 |
| 20260506233626 | 70 | 320 | 0.0 | 0.0 | 0.00 | 0.00 | 0.00 | 85 | 1034.6 |
| 20260506224743 | 70 | 325 | 0.0 | 0.0 | 0.00 | 0.00 | 0.00 | 84 | 1035.0 |
| 20260506223725 | 70 | 318 | 0.0 | 0.0 | 0.00 | 0.00 | 0.00 | 82 | 1034.9 |
| 20260506221726 | 69 | 326 | 0.0 | 0.0 | 0.00 | 0.00 | 0.00 | 83 | 1035.2 |
| 20260506215827 | 69 | 333 | 0.0 | 0.0 | 0.00 | 0.00 | 0.00 | 84 | 1035.4 |
| 20260506214926 | 69 | 320 | 0.0 | 0.0 | 0.00 | 0.00 | 0.00 | 85 | 1035.4 |
| 20260506213925 | 68 | 325 | 0.0 | 0.0 | 0.00 | 0.00 | 0.00 | 86 | 1035.4 |
| 20260506212924 | 68 | 332 | 0.0 | 0.0 | 0.00 | 0.00 | 0.00 | 85 | 1035.5 |
| 20260506211925 | 68 | 327 | 0.0 | 0.0 | 0.00 | 0.00 | 0.00 | 86 | 1035.6 |
| 20260506211024 | 68 | 326 | 0.0 | 0.0 | 0.00 | 0.00 | 0.00 | 84 | 1035.7 |
| 20260506210025 | 68 | 319 | 0.0 | 0.0 | 0.00 | 0.00 | 0.00 | 83 | 1035.8 |
| 20260506205024 | 68 | 318 | 0.0 | 0.0 | 0.00 | 0.00 | 0.00 | 83 | 1035.8 |
| 20260506204025 | 68 | 320 | 0.0 | 0.0 | 0.00 | 0.00 | 0.00 | 85 | 1036.0 |
| 20260506203026 | 67 | 327 | 0.0 | 0.0 | 0.00 | 0.00 | 0.00 | 87 | 1036.0 |
| 20260506202123 | 66 | 318 | 0.0 | 0.0 | 0.00 | 0.00 | 0.00 | 86 | 1036.0 |
| 20260506201126 | 66 | 325 | 0.0 | 0.0 | 0.00 | 0.00 | 0.00 | 85 | 1036.1 |
| 20260506195125 | 66 | 320 | 0.0 | 0.0 | 0.00 | 0.00 | 0.00 | 83 | 1036.3 |
| 20260506194127 | 66 | 318 | 0.0 | 0.0 | 0.00 | 0.00 | 0.00 | 82 | 1036.5 |
| 20260506193225 | 66 | 324 | 0.0 | 0.0 | 0.00 | 0.00 | 0.00 | 83 | 1036.7 |
| 20260506192225 | 66 | 322 | 0.0 | 0.0 | 0.00 | 0.00 | 0.00 | 83 | 1036.7 |
| 20260506191225 | 66 | 320 | 0.0 | 0.0 | 0.00 | 0.00 | 0.00 | 83 | 1036.7 |
| 20260506185226 | 66 | 319 | 0.0 | 0.0 | 0.00 | 0.00 | 0.00 | 80 | 1036.9 |
| 20260506184226 | 64 | 320 | 0.0 | 0.0 | 0.00 | 0.00 | 0.00 | 79 | 1037.1 |
| 20260506183225 | 64 | 320 | 0.0 | 0.0 | 0.00 | 0.00 | 0.00 | 77 | 1037.0 |
| 20260506182226 | 63 | 319 | 0.0 | 0.0 | 0.00 | 0.00 | 0.00 | 79 | 1037.1 |
| 20260506181241 | 63 | 319 | 0.0 | 0.0 | 0.00 | 0.00 | 0.00 | 79 | 1037.2 |
| 20260506180323 | 63 | 320 | 0.0 | 0.0 | 0.00 | 0.00 | 0.00 | 79 | 1037.3 |
| 20260506175325 | 63 | 318 | 0.0 | 0.0 | 0.00 | 0.00 | 0.00 | 79 | 1037.3 |
| 20260506174425 | 63 | 319 | 0.0 | 0.0 | 0.00 | 0.00 | 0.00 | 79 | 1037.3 |
| 20260506173425 | 63 | 317 | 0.0 | 0.0 | 0.00 | 0.00 | 0.00 | 80 | 1037.4 |
| 20260506172425 | 62 | 316 | 0.0 | 0.0 | 0.00 | 0.00 | 0.00 | 79 | 1037.4 |
| 20260506171524 | 62 | 320 | 0.0 | 0.0 | 0.00 | 0.00 | 0.00 | 79 | 1037.5 |
| 20260506170525 | 62 | 318 | 0.0 | 0.0 | 0.00 | 0.00 | 0.00 | 82 | 1037.5 |
| 20260506165525 | 62 | 321 | 0.0 | 0.0 | 0.00 | 0.00 | 0.00 | 82 | 1037.5 |
| 20260506164524 | 62 | 330 | 0.0 | 0.0 | 0.00 | 0.00 | 0.00 | 80 | 1037.5 |
| 20260506163525 | 61 | 320 | 0.0 | 0.0 | 0.00 | 0.00 | 0.00 | 79 | 1037.6 |
| 20260506161527 | 61 | 336 | 0.0 | 0.0 | 0.00 | 0.00 | 0.00 | 79 | 1037.4 |
| 20260506160527 | 62 | 318 | 0.0 | 0.0 | 0.00 | 0.00 | 0.00 | 81 | 1037.3 |
| 20260506155526 | 62 | 315 | 0.0 | 0.0 | 0.00 | 0.00 | 0.00 | 81 | 1037.3 |
| 20260506153524 | 62 | 359 | 0.0 | 0.0 | 0.00 | 0.00 | 0.00 | 83 | 1037.3 |
| 20260506152525 | 62 | 189 | 0.0 | 0.0 | 0.00 | 0.00 | 0.00 | 78 | 1037.3 |
| 20260506151526 | 61 | 180 | 0.0 | 0.0 | 0.00 | 0.00 | 0.00 | 77 | 1037.3 |
| 20260506150624 | 60 | 214 | 0.0 | 0.0 | 0.00 | 0.00 | 0.00 | 76 | 1037.4 |
| 20260506145626 | 60 | 268 | 0.0 | 0.0 | 0.00 | 0.00 | 0.00 | 76 | 1037.3 |
| 20260506143725 | 58 | 189 | 0.0 | 0.0 | 0.00 | 0.00 | 0.00 | 78 | 1037.3 |
| 20260506142725 | 58 | 326 | 0.0 | 0.0 | 0.00 | 0.00 | 0.00 | 80 | 1037.3 |
| 20260506141725 | 57 | 239 | 0.0 | 0.0 | 0.00 | 0.00 | 0.00 | 81 | 1037.2 |
| 20260506140726 | 56 | 325 | 0.0 | 0.0 | 0.00 | 0.00 | 0.00 | 83 | 1037.1 |
| 20260506133725 | 54 | 191 | 0.0 | 0.0 | 0.00 | 0.00 | 0.00 | 85 | 1037.0 |
| 20260506132725 | 54 | 322 | 0.0 | 0.0 | 0.00 | 0.00 | 0.00 | 86 | 1037.0 |
| 20260506131724 | 54 | 325 | 0.0 | 0.0 | 0.00 | 0.00 | 0.00 | 86 | 1036.8 |
| 20260506130725 | 54 | 299 | 0.0 | 0.0 | 0.00 | 0.00 | 0.00 | 85 | 1036.7 |
| 20260506125726 | 54 | 182 | 0.0 | 0.0 | 0.00 | 0.00 | 0.00 | 86 | 1036.7 |
| 20260506123824 | 54 | 337 | 0.0 | 0.0 | 0.00 | 0.00 | 0.00 | 86 | 1036.5 |
| 20260506122824 | 54 | 268 | 0.0 | 0.0 | 0.00 | 0.00 | 0.00 | 85 | 1036.4 |
| 20260506115924 | 54 | 337 | 0.0 | 0.0 | 0.00 | 0.00 | 0.00 | 86 | 1036.4 |
| 20260506115826 | 54 | 308 | 0.0 | 0.0 | 0.00 | 0.00 | 0.00 | 85 | 1036.4 |
| 20260506114825 | 54 | 337 | 0.0 | 0.0 | 0.00 | 0.00 | 0.00 | 86 | 1036.4 |
| 20260506112924 | 55 | 337 | 0.0 | 0.0 | 0.00 | 0.00 | 0.00 | 83 | 1036.3 |
| 20260506111925 | 55 | 182 | 0.0 | 0.0 | 0.00 | 0.00 | 0.00 | 83 | 1036.3 |
| 20260506110925 | 55 | 337 | 0.0 | 0.0 | 0.00 | 0.00 | 0.00 | 83 | 1036.2 |
| 20260506105926 | 56 | 337 | 0.0 | 0.0 | 0.00 | 0.00 | 0.00 | 82 | 1036.2 |
| 20260506105023 | 56 | 326 | 0.0 | 0.0 | 0.00 | 0.00 | 0.00 | 82 | 1036.1 |
| 20260506103925 | 56 | 337 | 0.0 | 0.0 | 0.00 | 0.00 | 0.00 | 82 | 1036.3 |
| 20260506103024 | 56 | 337 | 0.0 | 0.0 | 0.00 | 0.00 | 0.00 | 81 | 1036.1 |
| 20260506102025 | 57 | 337 | 0.0 | 0.0 | 0.00 | 0.00 | 0.00 | 80 | 1036.3 |
| 20260506101025 | 57 | 337 | 0.0 | 0.0 | 0.00 | 0.00 | 0.00 | 81 | 1036.1 |
| 20260506100044 | 56 | 337 | 0.0 | 0.0 | 0.00 | 0.00 | 0.00 | 81 | 1036.1 |
| 20260506094025 | 56 | 337 | 0.0 | 0.0 | 0.00 | 0.00 | 0.00 | 80 | 1036.0 |
| 20260506093124 | 56 | 337 | 0.0 | 0.0 | 0.00 | 0.00 | 0.00 | 81 | 1036.0 |
| 20260506091126 | 57 | 337 | 0.0 | 0.0 | 0.00 | 0.00 | 0.00 | 80 | 1036.2 |
| 20260506090126 | 57 | 337 | 0.0 | 0.0 | 0.00 | 0.00 | 0.00 | 79 | 1036.3 |
| 20260506085126 | 57 | 337 | 0.0 | 0.0 | 0.00 | 0.00 | 0.00 | 79 | 1036.3 |
| 20260506084128 | 58 | 337 | 0.0 | 0.0 | 0.00 | 0.00 | 0.00 | 79 | 1036.4 |
| 20260506083126 | 58 | 337 | 0.0 | 0.0 | 0.00 | 0.00 | 0.00 | 79 | 1036.4 |
| 20260506082126 | 58 | 337 | 0.0 | 0.0 | 0.00 | 0.00 | 0.00 | 79 | 1036.7 |
| 20260506081125 | 58 | 337 | 0.0 | 0.0 | 0.00 | 0.00 | 0.00 | 78 | 1036.7 |
| 20260506072224 | 59 | 180 | 0.0 | 0.0 | 0.00 | 0.00 | 0.00 | 79 | 1036.9 |
| 20260506071226 | 59 | 180 | 0.0 | 0.0 | 0.00 | 0.00 | 0.00 | 79 | 1036.8 |
| 20260506070228 | 59 | 180 | 0.0 | 0.0 | 0.00 | 0.00 | 0.00 | 79 | 1036.9 |
| 20260506062320 | 59 | 337 | 0.0 | 0.0 | 0.00 | 0.00 | 0.00 | 79 | 1036.5 |
| 20260506061419 | 59 | 337 | 0.0 | 0.0 | 0.00 | 0.00 | 0.00 | 78 | 1036.5 |
| 20260506060419 | 59 | 337 | 0.0 | 0.0 | 0.00 | 0.00 | 0.00 | 80 | 1036.4 |
| 20260506050619 | 59 | 322 | 0.0 | 0.0 | 0.00 | 0.00 | 0.00 | 78 | 1036.4 |
| 20260506044618 | 59 | 315 | 0.0 | 0.0 | 0.00 | 0.00 | 0.00 | 78 | 1036.1 |
| 20260506043619 | 59 | 315 | 0.0 | 0.0 | 0.00 | 0.00 | 0.00 | 78 | 1036.0 |
| 20260506042620 | 59 | 315 | 0.0 | 0.0 | 0.00 | 0.00 | 0.00 | 78 | 1035.9 |
| 20260506041618 | 59 | 337 | 0.0 | 0.0 | 0.00 | 0.00 | 0.00 | 77 | 1035.9 |
| 20260506040619 | 59 | 315 | 0.0 | 0.0 | 0.00 | 0.00 | 0.00 | 78 | 1035.8 |
| 20260506035620 | 59 | 317 | 0.0 | 0.0 | 0.00 | 0.00 | 0.00 | 79 | 1035.6 |
| 20260506033621 | 59 | 315 | 0.0 | 0.0 | 0.00 | 0.00 | 0.00 | 78 | 1035.2 |
| 20260506032620 | 59 | 336 | 0.0 | 0.0 | 0.00 | 0.00 | 0.00 | 78 | 1035.2 |
| 20260506031621 | 59 | 323 | 0.0 | 0.0 | 0.00 | 0.00 | 0.00 | 78 | 1035.0 |
| 20260506030621 | 59 | 320 | 0.0 | 0.0 | 0.00 | 0.00 | 0.00 | 78 | 1034.9 |
| 20260506025621 | 60 | 315 | 0.0 | 0.0 | 0.00 | 0.00 | 0.00 | 79 | 1034.8 |
| 20260506024720 | 60 | 316 | 0.0 | 0.0 | 0.00 | 0.00 | 0.00 | 78 | 1034.8 |
| 20260506023820 | 60 | 320 | 0.0 | 0.0 | 0.00 | 0.00 | 0.00 | 78 | 1034.6 |
| 20260506022819 | 60 | 333 | 0.0 | 0.0 | 0.00 | 0.00 | 0.00 | 78 | 1034.5 |
| 20260506021819 | 61 | 315 | 0.0 | 0.0 | 0.00 | 0.00 | 0.00 | 79 | 1034.3 |
| 20260506020819 | 61 | 329 | 0.0 | 0.0 | 0.00 | 0.00 | 0.00 | 80 | 1034.3 |
| 20260506015820 | 61 | 323 | 0.0 | 0.0 | 0.00 | 0.00 | 0.00 | 78 | 1034.2 |